Wind_Speed
3 4 4 4 4 4 4 4 4 4 5 5 5 6 6 5 4 5 5 5 5 6 7 7 7 8 8 7 7 7 6 6 6 6 6 8 7 7 7 9 8 8 9
3 4 4 3 4 4 4 4 4 4 4 4 5 4 4 3 3 4 4 4 5 5 6 6 6 7 8 7 7 6 6 6 6 6 6 7 7 7 8 8 8 9 9
3 4 3 3 3 3 3 3 3 3 4 4 4 3 2 2 1 2 3 3 4 4 4 4 5 6 7 6 6 6 6 6 6 6 7 7 8 7 7 8 8 8 8
3 3 3 2 2 2 3 3 3 3 3 3 2 1 1 1 1 1 2 2 3 3 3 3 4 4 5 6 6 6 6 6 6 6 6 7 7 6 6 7 7 8 7
2 2 2 2 2 2 2 3 2 3 2 2 2 1 1 1 1 0 1 1 2 2 2 3 3 3 4 4 5 5 6 6 6 6 6 6 6 5 5 5 6 7 7
2 2 2 2 2 2 3 3 2 2 2 2 2 2 1 1 1 2 1 1 1 1 2 2 2 3 3 3 3 4 4 5 5 6 6 5 5 5 4 4 5 6 7
2 2 2 2 2 2 3 3 3 2 2 2 2 2 2 2 2 2 2 1 1 1 1 2 2 2 2 2 2 3 3 4 4 4 5 5 5 5 5 5 5 6 6
1 2 2 2 2 2 3 3 3 3 3 2 2 3 3 3 3 2 2 2 2 1 0 1 1 1 2 1 1 2 3 3 4 4 4 4 4 5 5 5 5 5 6
1 2 2 2 2 3 3 3 3 3 3 3 3 3 3 4 3 3 2 2 1 0 1 1 0 0 1 2 2 2 3 3 4 4 4 4 4 4 5 5 6 6 7
2 1 1 2 2 2 2 2 3 3 3 3 3 4 3 3 3 3 3 2 1 1 1 1 2 2 1 2 2 3 3 4 4 4 4 4 5 5 5 6 7 7 8
1 1 1 1 1 2 2 2 3 3 4 4 4 4 4 3 3 3 3 2 1 1 1 2 3 3 3 3 2 3 3 3 3 4 4 5 5 5 5 6 7 8 8
1 1 1 1 1 2 2 2 2 2 2 3 3 3 3 3 3 3 2 2 2 1 1 2 3 3 4 3 3 2 3 3 3 4 4 4 4 4 5 5 6 7 8
2 1 1 1 2 2 2 2 2 2 2 3 3 3 2 2 2 2 2 2 2 1 2 3 3 4 4 4 3 2 2 3 3 4 4 4 4 5 5 5 6 7 8
3 2 1 1 1 1 1 1 2 2 2 2 2 2 2 2 2 2 2 2 2 2 2 3 3 4 4 3 3 3 3 3 3 4 4 5 5 6 6 7 7 7 7
4 3 2 1 1 1 1 0 1 1 1 1 1 1 1 1 1 1 1 1 2 2 2 3 4 5 4 4 4 4 4 4 4 4 5 6 6 7 7 8 8 9 9
6 4 3 2 2 1 0 0 0 1 1 1 1 2 2 2 2 2 2 2 2 3 3 4 4 5 5 5 5 5 5 5 5 6 6 6 7 7 8 9 10 11 11
7 5 4 4 3 2 1 1 1 1 2 2 2 3 3 3 3 3 3 3 3 4 4 4 5 5 5 5 5 6 7 7 7 8 8 9 9 10 10 10 11 12 13
9 7 6 5 4 4 3 3 3 3 3 3 3 3 4 4 4 4 4 5 5 5 5 5 6 6 6 7 7 8 8 9 9 10 11 11 11 12 12 13 13 13 14
10 9 8 7 6 5 5 4 4 4 4 5 5 5 4 4 5 5 5 5 6 6 6 6 7 8 8 8 9 10 10 11 11 12 12 13 13 14 14 15 15 16 16
11 10 9 8 8 7 7 6 6 6 6 6 6 6 6 6 6 6 6 7 7 7 8 8 9 9 10 10 11 11 12 13 13 14 14 15 15 16 16 16 17 17 18
12 12 11 10 10 10 9 9 8 8 8 8 8 8 7 8 8 8 9 9 9 9 10 10 11 12 12 13 13 14 15 15 16 16 17 17 18 18 19 19 19 20 21
12 12 12 11 11 11 11 11 10 10 9 9 9 9 9 9 9 9 10 11 11 12 12 13 13 14 15 16 16 17 17 18 18 19 19 20 20 21 21 22 22 23 23
13 13 13 12 12 12 12 12 12 12 12 11 11 11 11 10 10 11 12 12 13 14 15 15 16 17 18 19 19 20 20 20 21 21 21 22 23 23 24 24 25 25 26
12 13 13 13 13 12 12 12 12 12 12 12 13 12 12 13 13 14 14 15 15 16 17 18 19 19 20 21 21 22 22 23 23 24 24 24 26 26 27 27 28 29 29
13 13 14 14 14 14 14 14 14 13 14 14 14 14 14 14 15 16 17 17 18 19 20 21 22 22 23 23 24 25 26 26 26 27 27 28 28 29 30 31 31 32 33
15 15 15 15 15 15 15 15 15 15 14 14 14 15 16 16 17 18 19 19 19 20 21 22 24 24 25 26 26 27 28 28 29 29 30 30 31 31 31 32 34 35 35
Wind_Direction
327 323 318 317 318 311 312 313 312 308 306 308 304 299 298 283 266 253 240 235 232 233 237 240 243 241 241 245 248 243 244 247 251 255 259 264 266 262 254 245 239 244 246
332 328 320 322 324 322 323 319 316 311 310 311 312 307 299 288 260 242 230 228 225 226 231 239 242 239 239 246 247 244 240 244 247 251 255 261 266 260 250 250 245 247 247
341 338 331 326 328 332 332 332 329 323 318 316 318 313 300 297 268 237 225 227 225 224 228 233 234 237 237 240 244 239 241 243 247 250 256 263 266 264 257 253 248 250 249
345 345 345 343 342 342 345 348 347 345 337 335 337 341 332 314 294 226 208 204 208 220 229 236 233 236 238 240 240 237 242 249 255 259 264 264 262 264 264 255 250 246 244
347 357 1 10 4 1 1 360 357 5 9 17 27 33 38 19 22 119 162 184 202 214 220 219 222 229 236 233 233 237 245 250 259 267 269 264 259 259 259 258 255 246 245
5 18 22 27 27 21 14 16 24 39 44 45 56 56 61 47 68 104 118 131 134 191 206 213 226 225 223 226 234 241 250 252 258 266 269 262 256 257 250 250 249 247 249
26 34 32 39 39 29 26 33 39 56 69 72 71 69 72 81 86 92 108 115 113 138 203 225 234 246 232 213 258 266 263 264 262 267 271 265 260 262 255 246 245 252 254
43 45 46 51 54 46 41 37 46 73 86 92 82 77 75 81 89 86 92 98 93 84 49 230 246 266 245 254 273 265 266 267 270 275 276 271 266 267 257 250 249 250 252
70 63 51 51 54 52 43 34 51 66 72 88 87 83 81 74 80 80 97 104 123 144 32 49 296 321 270 277 269 279 284 284 284 289 282 281 277 270 260 252 250 247 250
90 69 49 39 43 44 35 35 48 69 74 87 93 88 83 80 84 84 89 92 100 102 53 28 12 2 332 313 295 294 299 299 292 288 289 287 284 278 269 253 249 251 254
115 81 44 36 36 29 31 41 63 78 81 86 90 89 86 83 89 91 90 79 80 66 46 16 9 359 337 333 312 309 308 303 298 298 298 293 289 288 281 264 255 255 259
158 117 57 54 47 46 34 26 50 77 83 93 95 89 81 71 79 88 83 65 49 53 46 17 15 13 0 350 343 333 325 322 317 315 303 299 298 294 294 287 278 268 265
185 151 111 87 86 71 51 37 33 52 91 100 99 89 75 67 65 64 60 45 29 29 16 13 11 7 4 1 359 349 334 324 327 330 328 325 313 302 295 292 287 279 276
188 169 151 116 104 87 59 32 26 49 80 90 90 78 65 52 55 50 53 39 10 3 8 3 354 354 352 350 349 335 332 336 342 331 322 318 312 309 307 301 292 290 290
198 193 183 162 136 111 83 25 37 26 64 73 56 36 27 18 14 27 26 357 357 6 0 351 343 346 349 342 332 332 320 324 324 324 321 315 314 314 312 302 297 298 300
205 202 204 201 188 173 118 64 48 3 345 307 292 295 297 300 307 315 320 323 329 332 335 334 336 339 335 332 326 329 331 319 319 327 326 328 324 318 311 305 299 297 298
211 208 212 214 214 217 230 244 274 307 311 307 297 289 283 282 287 295 302 311 318 319 324 327 331 332 331 330 326 324 328 328 324 322 319 317 316 315 313 309 305 300 299
217 217 220 225 230 236 244 253 263 280 298 305 308 301 288 282 282 287 294 299 301 306 311 315 318 322 326 325 323 322 322 321 319 318 316 315 314 313 311 310 307 305 305
226 229 231 234 241 247 252 258 265 277 285 292 298 297 291 290 287 287 293 299 301 304 307 313 316 318 320 318 315 315 315 314 312 313 312 312 311 310 309 307 306 304 303
231 235 240 243 248 253 258 265 272 279 284 288 292 291 285 286 286 284 287 292 297 299 301 303 306 308 308 310 310 310 309 306 305 307 308 308 308 307 306 305 305 304 302
235 239 243 246 251 255 260 266 273 278 283 286 289 287 283 284 283 283 286 288 291 293 293 295 299 301 301 303 305 305 305 305 304 303 302 303 304 305 305 305 305 303 302
239 242 245 248 254 259 264 267 269 273 278 281 284 284 283 284 283 284 286 288 290 291 292 293 295 297 299 300 301 301 302 302 303 301 301 301 302 302 302 303 303 303 301
243 245 246 248 254 259 263 267 269 271 274 278 281 281 281 283 283 288 289 290 291 291 292 294 295 297 298 299 299 299 300 300 300 300 300 301 300 300 299 300 301 301 301
246 247 248 251 254 259 263 267 269 272 274 277 279 281 282 281 283 287 289 290 291 291 291 293 295 296 296 296 297 298 298 299 299 299 299 299 299 298 298 299 299 300 300
248 250 252 254 256 260 265 269 272 276 278 279 278 279 282 284 286 287 288 289 290 289 290 292 295 294 295 296 297 297 297 297 297 297 297 298 297 298 298 298 299 299 299
251 253 253 256 257 261 265 267 272 276 279 280 281 282 283 286 288 289 289 290 290 290 291 293 295 295 295 296 297 297 297 297 297 297 297 297 297 297 297 298 298 298 297
Height
5868 5867 5867 5866 5865 5865 5864 5863 5863 5862 5862 5861 5861 5860 5860 5860 5860 5860 5861 5861 5862 5863 5864 5865 5865 5866 5867 5868 5868 5869 5869 5870 5870 5870 5870 5869 5868 5866 5865 5865 5868 5869 5870
5868 5867 5866 5865 5865 5864 5864 5863 5862 5862 5861 5861 5860 5859 5859 5859 5859 5859 5860 5860 5861 5862 5862 5863 5864 5865 5866 5867 5867 5868 5868 5869 5869 5869 5869 5868 5867 5866 5865 5866 5867 5868 5868
5867 5866 5866 5865 5864 5864 5863 5863 5862 5861 5861 5860 5860 5859 5859 5859 5859 5859 5859 5860 5860 5861 5861 5862 5863 5864 5865 5866 5866 5867 5867 5868 5868 5868 5868 5867 5867 5866 5865 5864 5865 5866 5867
5867 5866 5865 5865 5864 5863 5863 5862 5862 5861 5860 5860 5859 5859 5859 5859 5859 5859 5859 5860 5860 5861 5861 5862 5862 5863 5864 5865 5865 5866 5866 5867 5867 5867 5866 5866 5865 5865 5864 5862 5863 5864 5865
5867 5866 5865 5864 5864 5863 5863 5862 5861 5861 5860 5860 5859 5859 5859 5859 5859 5859 5859 5860 5860 5861 5861 5862 5862 5863 5863 5864 5864 5865 5865 5865 5866 5865 5865 5865 5865 5864 5863 5862 5862 5863 5864
5867 5866 5865 5864 5864 5864 5863 5862 5861 5861 5860 5860 5860 5860 5859 5859 5859 5859 5860 5860 5860 5861 5861 5861 5862 5862 5862 5863 5863 5863 5864 5864 5864 5864 5864 5863 5863 5863 5863 5863 5863 5863 5863
5867 5866 5865 5865 5864 5864 5863 5862 5862 5861 5861 5860 5860 5860 5860 5860 5860 5860 5860 5860 5861 5861 5861 5861 5861 5862 5862 5862 5863 5863 5863 5863 5863 5863 5862 5862 5862 5862 5862 5862 5862 5863 5863
5867 5866 5865 5865 5864 5864 5863 5862 5862 5861 5861 5861 5861 5861 5861 5861 5860 5860 5861 5861 5861 5861 5861 5861 5861 5862 5862 5862 5862 5862 5862 5862 5861 5861 5861 5861 5861 5861 5861 5861 5862 5862 5862
5867 5866 5866 5865 5865 5864 5863 5863 5862 5862 5861 5861 5862 5862 5862 5861 5861 5861 5861 5861 5861 5862 5862 5861 5861 5861 5861 5861 5861 5861 5861 5860 5860 5860 5860 5860 5860 5859 5859 5860 5860 5861 5861
5867 5866 5866 5865 5865 5864 5864 5863 5863 5862 5862 5862 5862 5862 5862 5862 5862 5862 5862 5862 5862 5862 5862 5862 5861 5861 5861 5861 5860 5860 5860 5859 5859 5859 5859 5858 5858 5858 5858 5858 5859 5859 5859
5867 5866 5866 5866 5865 5865 5864 5864 5863 5863 5863 5863 5863 5863 5863 5863 5863 5863 5863 5862 5862 5862 5862 5862 5861 5861 5860 5860 5859 5859 5859 5859 5858 5858 5858 5857 5857 5856 5856 5856 5857 5857 5857
5867 5867 5866 5866 5866 5865 5865 5864 5864 5864 5863 5863 5863 5863 5863 5863 5863 5863 5863 5863 5863 5863 5862 5862 5862 5861 5860 5859 5859 5858 5858 5858 5858 5857 5857 5856 5855 5855 5855 5855 5855 5855 5855
5867 5867 5867 5866 5866 5865 5865 5865 5864 5864 5864 5864 5864 5864 5864 5864 5864 5863 5863 5863 5863 5863 5862 5862 5862 5861 5860 5859 5859 5858 5858 5858 5857 5857 5856 5855 5855 5854 5854 5854 5854 5854 5853
5867 5867 5867 5866 5866 5866 5865 5865 5865 5865 5864 5864 5864 5864 5864 5864 5864 5864 5864 5863 5863 5863 5863 5862 5862 5861 5860 5860 5859 5858 5858 5857 5857 5856 5856 5855 5854 5853 5853 5852 5852 5852 5851
5866 5866 5867 5866 5866 5866 5865 5865 5865 5865 5865 5865 5864 5864 5864 5864 5864 5863 5863 5863 5864 5863 5863 5862 5862 5861 5860 5859 5859 5858 5857 5857 5856 5856 5855 5854 5853 5853 5852 5851 5850 5850 5849
5866 5866 5866 5866 5866 5866 5866 5865 5865 5865 5865 5865 5864 5864 5864 5864 5863 5863 5863 5863 5863 5863 5862 5862 5862 5861 5860 5859 5859 5858 5857 5856 5856 5855 5854 5853 5852 5851 5850 5850 5848 5847 5847
5865 5866 5866 5866 5866 5866 5866 5866 5865 5865 5865 5864 5864 5864 5863 5863 5863 5863 5863 5863 5862 5862 5862 5862 5861 5860 5859 5859 5858 5858 5857 5856 5855 5854 5853 5852 5851 5850 5849 5847 5846 5844 5843
5864 5865 5865 5866 5866 5866 5866 5866 5865 5865 5865 5864 5863 5863 5862 5862 5862 5862 5862 5862 5861 5861 5861 5861 5860 5860 5859 5858 5857 5857 5856 5855 5854 5853 5851 5850 5849 5848 5846 5845 5843 5842 5840
5863 5864 5864 5865 5865 5865 5865 5865 5865 5865 5864 5863 5863 5862 5861 5861 5861 5860 5860 5860 5860 5860 5860 5860 5860 5859 5858 5857 5856 5855 5854 5853 5852 5851 5849 5848 5846 5845 5843 5842 5840 5838 5837
5861 5862 5863 5863 5864 5864 5864 5864 5864 5864 5863 5862 5862 5861 5860 5860 5859 5859 5859 5859 5859 5859 5859 5858 5858 5857 5857 5856 5855 5853 5852 5851 5849 5848 5846 5845 5843 5842 5840 5838 5836 5835 5833
5859 5860 5861 5861 5862 5862 5863 5863 5862 5862 5862 5861 5860 5859 5859 5858 5858 5858 5858 5858 5857 5857 5857 5856 5856 5855 5854 5853 5852 5851 5849 5848 5846 5845 5843 5841 5840 5838 5836 5834 5832 5830 5828
5857 5858 5859 5859 5860 5860 5860 5860 5860 5860 5860 5859 5859 5858 5857 5857 5856 5856 5856 5856 5855 5855 5854 5854 5853 5852 5851 5850 5849 5847 5846 5844 5842 5841 5839 5837 5835 5833 5831 5829 5827 5825 5823
5854 5855 5856 5856 5857 5857 5858 5858 5858 5858 5857 5857 5857 5856 5855 5855 5855 5854 5854 5853 5853 5852 5852 5851 5850 5849 5848 5846 5845 5843 5841 5840 5838 5836 5834 5832 5830 5828 5826 5823 5821 5819 5817
5851 5852 5853 5854 5854 5855 5855 5855 5855 5855 5855 5854 5854 5854 5853 5852 5852 5851 5851 5850 5849 5849 5848 5847 5846 5845 5843 5842 5840 5838 5836 5835 5833 5830 5828 5827 5824 5822 5819 5817 5814 5812 5809
5848 5849 5850 5851 5851 5852 5852 5852 5852 5852 5852 5851 5851 5850 5850 5849 5849 5848 5847 5847 5846 5845 5844 5842 5841 5840 5838 5836 5835 5833 5831 5829 5827 5824 5822 5820 5817 5815 5812 5809 5806 5804 5801
5845 5846 5846 5847 5848 5848 5849 5849 5849 5849 5848 5848 5847 5847 5847 5846 5845 5844 5843 5842 5841 5840 5839 5837 5836 5834 5832 5830 5828 5826 5824 5822 5819 5817 5815 5812 5810 5807 5805 5802 5798 5795 5792